Location: Olsztyn
(53.7767°N, 20.4765°E)
Time: 17:32:00
(UTC+02:00)

A-11 Canister half - Pass Details

Date: 24 January 2022
Orbit: 1513 x 1686 km, 47.2° (Epoch: 24 May)

Event Time Altitude Azimuth Distance (km) Brightness Sun altitude
Rises 18:40:05 0° 250° (WSW) 4,724 12.8 -22.6°
Reaches altitude 10° 18:43:13 10° 246° (WSW) 3,722 11.9 -23.1°
Maximum altitude 18:52:16 57° 171° (S) 1,747 9.1 -24.4°
Enters shadow 18:55:44 38° 116° (ESE) 2,153 9.3 -24.9°
